Retour au catalogue

FENGYUN 1C DEB

ActifSSO
NORAD 32143·DEBRIS·🇨🇳 China

Lancé May 10, 1999 depuis Taiyuan Satellite Launch Center

Loading…

Prochains Passages (prochaines 24 heures)

TLE

FraisSource: Space-Track

Époque: Sep 14, 2026, 04:00 UTC

1 32143U 99025CSM 26257.16735713  .00000242  00000-0  13128-3 0  9999
2 32143  98.6280 231.0274 0104001  36.0818 324.7319 14.18175000998371

Suivez FENGYUN 1C DEB en temps réel avec AllMySat

Download on the App Store